N8DH Weather Reports


Display with metric or nautical units.
time (UTC)temp
F
wind
direction
speed
MPH
gust
MPH
rain 1hr
in
rain 24hr
in
rain mn
in
humidity
%
barometer
mb
20260903101638 72 141 0.0 0.0 0.00 0.00 0.00 92 1007.3
20260903100025 72 141 0.0 0.0 0.00 0.00 0.00 91 1007.3
20260903094610 72 141 0.0 0.0 0.00 0.00 0.00 90 1007.3
20260903093135 71 141 0.0 2.0 0.00 0.00 0.00 91 1007.2
20260903091647 71 141 0.0 2.0 0.00 0.00 0.00 90 1007.1
20260903084639 72 141 0.0 2.0 0.00 0.00 0.00 87 1007.0
20260903083140 71 141 0.0 2.0 0.00 0.00 0.00 88 1006.9
20260903081635 72 195 0.0 2.0 0.00 0.00 0.00 87 1007.0
20260903080145 72 195 0.0 2.0 0.00 0.00 0.00 88 1007.2
20260903074656 72 195 0.0 2.0 0.00 0.00 0.00 88 1007.5
20260903073032 72 195 0.0 2.0 0.00 0.00 0.00 88 1007.6
20260903071558 72 195 0.0 2.0 0.00 0.00 0.00 88 1007.3
20260903070013 73 195 0.0 1.0 0.00 0.00 0.00 85 1007.1
20260903064553 73 195 0.0 2.0 0.00 0.00 0.00 84 1007.3
20260903063005 75 313 0.0 2.0 0.00 0.00 0.00 79 1007.9
20260903061559 77 243 0.0 3.0 0.00 0.00 0.00 77 1008.0
20260903060033 79 360 3.0 7.0 0.00 0.00 0.00 76 1008.0
20260903054623 80 272 1.0 6.0 0.00 0.00 0.00 79 1008.1
20260903053043 81 248 1.0 4.0 0.00 0.00 0.00 79 1007.2
20260903051618 81 256 3.0 7.0 0.00 0.00 0.00 78 1007.1
20260903050009 81 251 4.0 9.0 0.00 0.00 0.00 77 1006.8
20260903044542 81 201 3.0 9.0 0.00 0.00 0.00 77 1006.5
20260903043112 81 290 4.0 8.0 0.00 0.00 0.00 77 1006.5
20260903041517 80 202 3.0 6.0 0.00 0.00 0.00 79 1006.3
20260903040051 80 209 2.0 6.0 0.00 0.00 0.00 79 1006.2
20260903034647 80 215 2.0 6.0 0.00 0.00 0.00 79 1006.0
20260903033017 80 209 4.0 7.0 0.00 0.00 0.00 78 1005.7
20260903031600 80 218 4.0 8.0 0.00 0.00 0.00 77 1005.6
20260903030027 80 165 3.0 7.0 0.00 0.00 0.00 77 1006.1
20260903024603 80 193 2.0 6.0 0.00 0.00 0.00 78 1006.4
20260903023006 80 176 1.0 5.0 0.00 0.00 0.00 77 1006.6
20260903021545 80 203 1.0 3.0 0.00 0.00 0.00 77 1006.7
20260903020113 80 179 0.0 3.0 0.00 0.00 0.00 78 1006.8
20260903014643 80 157 0.0 5.0 0.00 0.00 0.00 78 1006.9
20260903013005 80 167 0.0 2.0 0.00 0.00 0.00 78 1006.9
20260903011547 81 154 0.0 3.0 0.00 0.00 0.00 76 1006.9
20260903010113 82 171 1.0 4.0 0.00 0.00 0.00 74 1006.8
20260903004641 83 196 3.0 5.0 0.00 0.00 0.00 73 1006.7
20260903003138 83 197 2.0 3.0 0.00 0.00 0.00 72 1006.6
20260903001653 84 210 2.0 4.0 0.00 0.00 0.00 72 1006.6
20260903000013 85 204 1.0 5.0 0.00 0.00 0.00 70 1006.5
20260902234609 85 205 1.0 5.0 0.00 0.00 0.00 69 1006.5
20260902233142 86 205 1.0 4.0 0.00 0.00 0.00 69 1006.5
20260902231544 87 205 2.0 5.0 0.00 0.00 0.00 67 1006.5
20260902230106 88 188 2.0 5.0 0.00 0.00 0.00 66 1006.3
20260902224641 88 210 3.0 7.0 0.00 0.00 0.00 64 1006.4
20260902223149 89 238 3.0 9.0 0.00 0.00 0.00 63 1006.4
20260902221535 90 198 4.0 9.0 0.00 0.00 0.00 63 1006.4
20260902220118 90 201 4.0 6.0 0.00 0.00 0.00 62 1006.4
20260902214528 91 242 4.0 10.0 0.00 0.00 0.00 61 1006.6
20260902213104 91 202 2.0 7.0 0.00 0.00 0.00 62 1006.5
20260902211644 91 215 5.0 11.0 0.00 0.00 0.00 58 1006.7
20260902210007 92 186 2.0 13.0 0.00 0.00 0.00 57 1006.9
20260902204558 92 175 4.0 9.0 0.00 0.00 0.00 59 1007.0
20260902201606 92 219 4.0 10.0 0.00 0.00 0.00 58 1007.3
20260902200030 92 203 4.0 12.0 0.00 0.00 0.00 59 1007.3
20260902194555 92 226 3.0 11.0 0.00 0.00 0.00 56 1007.5
20260902193135 92 203 4.0 13.0 0.00 0.00 0.00 58 1007.6
20260902191634 92 242 5.0 14.0 0.00 0.00 0.00 59 1007.8
20260902190028 92 245 3.0 7.0 0.00 0.00 0.00 62 1007.9
20260902184537 92 184 5.0 8.0 0.00 0.00 0.00 60 1008.0
20260902183100 92 215 4.0 9.0 0.00 0.00 0.00 62 1008.2
20260902181637 91 207 4.0 10.0 0.00 0.00 0.00 63 1008.4
20260902180137 91 233 5.0 10.0 0.00 0.00 0.00 63 1008.4
20260902174639 90 173 3.0 7.0 0.00 0.00 0.00 63 1008.7
20260902173137 90 202 3.0 6.0 0.00 0.00 0.00 65 1008.8
20260902171644 89 242 3.0 7.0 0.00 0.00 0.00 65 1009.1
20260902170026 89 167 4.0 7.0 0.00 0.00 0.00 67 1009.3
20260902164601 88 205 3.0 7.0 0.00 0.00 0.00 65 1009.3
20260902163141 88 155 2.0 4.0 0.00 0.00 0.00 67 1009.4
20260902161535 87 210 2.0 5.0 0.00 0.00 0.00 69 1009.4
20260902160126 87 268 1.0 3.0 0.00 0.00 0.00 71 1009.4
20260902154510 86 211 1.0 4.0 0.00 0.00 0.00 74 1009.6
20260902153058 86 178 3.0 6.0 0.00 0.00 0.00 72 1009.5
20260902151642 85 245 2.0 5.0 0.00 0.00 0.00 73 1009.5
20260902150016 85 179 2.0 5.0 0.00 0.00 0.00 75 1009.5
20260902144549 84 259 2.0 6.0 0.00 0.00 0.00 77 1009.5
20260902143006 83 279 2.0 5.0 0.00 0.00 0.00 77 1009.5
20260902141513 82 193 2.0 7.0 0.00 0.00 0.00 79 1009.3
20260902140100 81 192 2.0 8.0 0.00 0.00 0.00 81 1009.2
20260902134522 81 209 3.0 7.0 0.00 0.00 0.00 81 1009.2
20260902133105 80 202 2.0 5.0 0.00 0.00 0.00 83 1009.1
20260902131511 79 219 2.0 6.0 0.00 0.00 0.00 85 1009.1
20260902130100 78 235 2.0 7.0 0.00 0.00 0.00 85 1009.0
20260902124544 78 200 2.0 5.0 0.00 0.00 0.00 86 1009.2
20260902123142 77 205 1.0 4.0 0.00 0.00 0.00 88 1009.2
20260902121652 77 212 2.0 5.0 0.00 0.00 0.00 88 1009.2
20260902120013 76 194 1.0 3.0 0.00 0.00 0.00 87 1009.2
20260902114554 76 335 0.0 2.0 0.00 0.00 0.00 88 1009.0
20260902113144 75 179 0.0 4.0 0.00 0.00 0.00 89 1008.8
20260902111656 74 180 0.0 3.0 0.00 0.00 0.00 90 1008.5
20260902110151 74 182 2.0 4.0 0.00 0.00 0.00 90 1008.5
20260902104651 74 176 0.0 3.0 0.00 0.00 0.00 90 1008.4
20260902103147 74 204 1.0 2.0 0.00 0.00 0.00 90 1008.4